Pompano Beach, FL

8:36 AM EDT on September 27, 2016 (GMT -0400)
Pompano Beach

Weather History for KPMP - December, 2012

Change the Weather History Date:

Saturday, December 22, 2012

  Actual Average Record
Temperature  
Mean Temperature 54 °F -  
Max Temperature 63 °F 77 °F 89 °F (1983)
Min Temperature 46 °F 60 °F 34 °F (1960)
Degree Days  
Heating Degree Days 10    
Growing Degree Days 4 (Base 50)    
Moisture  
Dew Point 28 °F    
Average Humidity 40    
Maximum Humidity 66    
Minimum Humidity 21    
Precipitation  
Precipitation 0.00 in - - ()
Sea Level Pressure  
Sea Level Pressure 30.22 in    
Wind  
Wind Speed 13 mph (NW)    
Max Wind Speed 17 mph    
Max Gust Speed 23 mph    
Visibility 10 miles    
Events      
Averages and records for this station are not official NWS values.
T = Trace of Precipitation, MM = Missing Value Source: NWS Daily Summary

Daily Weather History Graph

Daily Weather History Graph

Search for Another Location

Airport or City:

Trip Planner

Search our weather history database for the weather conditions in past years. The results will help you decide how hot, cold, wet, or windy it might be!

Date:

Astronomy

Dec. 22, 2012 Rise Set
Actual Time 7:04 AM EST 5:34 PM EST
Civil Twilight 6:39 AM EST 5:59 PM EST
Nautical Twilight 6:10 AM EST 6:28 PM EST
Astronomical Twilight 5:41 AM EST 6:56 PM EST
Moon 1:35 PM EST (12/22) 2:05 AM EST (12/22)
Length of Visible Light 11h 20m
Length of Day
10h 29m
Waxing Gibbous, 73% of the Moon is Illuminated
Dec 22
Waxing Gibbous
Dec 28
Full
Jan 4
Last Quarter
Jan 11
New
Jan 18
First Quarter

Hourly Weather History & Observations

Time (EST) Temp. Windchill Dew Point Humidity Pressure Visibility Wind Dir Wind Speed Gust Speed Precip Events Conditions
12:53 AM 50.0 °F - 39.0 °F 66% 30.18 in 10.0 mi NW 13.8 mph - N/A   Clear
1:53 AM 50.0 °F - 37.0 °F 61% 30.18 in 10.0 mi NNW 13.8 mph - N/A   Clear
2:53 AM 48.9 °F - 28.0 °F 44% 30.19 in 10.0 mi NNW 12.7 mph - N/A   Clear
3:53 AM 48.0 °F - 28.0 °F 46% 30.19 in 10.0 mi NW 13.8 mph - N/A   Clear
4:53 AM 46.9 °F - 27.0 °F 46% 30.19 in 10.0 mi NNW 10.4 mph - N/A   Clear
5:53 AM 46.0 °F 41.0 °F 26.1 °F 46% 30.20 in 10.0 mi NNW 10.4 mph - N/A   Clear
6:53 AM 46.0 °F 39.6 °F 25.0 °F 44% 30.23 in 10.0 mi NNW 15.0 mph - N/A   Clear
7:53 AM 46.9 °F - 21.9 °F 37% 30.25 in 10.0 mi NNW 17.3 mph - N/A   Clear
8:53 AM 50.0 °F - 21.0 °F 32% 30.26 in 10.0 mi NNW 17.3 mph 21.9 mph N/A   Clear
9:53 AM 53.1 °F - 19.9 °F 27% 30.26 in 10.0 mi NW 13.8 mph - N/A   Clear
10:53 AM 57.0 °F - 19.9 °F 24% 30.26 in 10.0 mi NW 13.8 mph - N/A   Clear
11:53 AM 61.0 °F - 19.9 °F 21% 30.24 in 10.0 mi NNW 17.3 mph - N/A   Clear
12:53 PM 62.1 °F - 21.9 °F 21% 30.21 in 10.0 mi NW 13.8 mph 23.0 mph N/A   Partly Cloudy
1:53 PM 63.0 °F - 25.0 °F 24% 30.19 in 10.0 mi NW 12.7 mph - N/A   Clear
2:53 PM 63.0 °F - 27.0 °F 26% 30.19 in 10.0 mi NW 13.8 mph - N/A   Clear
3:53 PM 63.0 °F - 28.0 °F 27% 30.19 in 10.0 mi NW 11.5 mph - N/A   Clear
4:53 PM 62.1 °F - 28.9 °F 29% 30.20 in 10.0 mi NW 9.2 mph - N/A   Clear
5:53 PM 57.0 °F - 30.0 °F 36% 30.21 in 10.0 mi WNW 6.9 mph - N/A   Clear
7:53 PM 51.1 °F - 33.1 °F 50% 30.23 in 10.0 mi NW 5.8 mph - N/A   Clear
8:53 PM 51.1 °F - 34.0 °F 52% 30.25 in 10.0 mi WNW 5.8 mph - N/A   Clear
9:53 PM 51.1 °F - 34.0 °F 52% 30.25 in 10.0 mi NNW 8.1 mph - N/A   Clear
10:53 PM 50.0 °F - 33.1 °F 52% 30.25 in 10.0 mi NNW 5.8 mph - N/A   Clear
11:53 PM 50.0 °F - 32.0 °F 50% 30.24 in 10.0 mi NNW 6.9 mph - N/A   Clear